GFSSGP_850_rhum_117.txt.gz
RH
6 5 14 31 42 29 25 18 12 10 7 9 9 10 13 18 31 53 46 34 34 15 13 14 12 12 16 23 32 43 52 56 55 54 55 60 56 57 44 42 44 45 48 45 55 64 69 70 68
6 9 25 28 34 32 25 14 13 8 10 9 8 9 13 26 35 44 36 36 18 13 14 12 10 12 21 30 38 46 51 48 46 47 56 61 58 60 50 44 48 51 69 59 49 54 56 61 65
6 23 28 39 35 30 24 12 9 10 9 9 9 8 9 25 34 31 18 21 12 15 13 11 9 11 22 32 40 42 41 42 47 52 59 64 61 62 58 48 49 57 62 57 50 49 47 50 59
14 31 36 29 30 22 16 12 9 9 9 8 8 10 12 22 30 29 18 15 14 15 13 12 9 11 22 35 39 39 40 44 52 58 63 65 63 64 63 55 52 56 63 58 54 50 57 59 61
41 41 35 30 24 16 12 10 8 8 9 8 8 9 16 19 25 26 15 15 14 15 13 13 11 10 19 30 38 41 41 43 49 58 64 67 68 67 67 61 55 63 70 64 66 60 60 54 60
40 29 36 33 23 16 12 9 8 8 8 8 8 10 17 28 27 26 19 13 16 15 14 14 13 11 14 20 32 42 44 44 45 51 60 67 70 69 69 67 63 64 68 73 69 64 63 64 64
46 42 38 32 25 19 13 9 10 9 9 10 8 11 21 31 28 30 25 18 21 18 14 14 14 12 12 15 20 30 41 45 46 47 51 58 68 70 66 70 69 69 73 75 71 69 66 64 62
35 38 41 32 25 20 12 10 8 7 8 7 8 11 12 31 30 34 37 32 27 24 18 14 14 13 12 13 16 19 27 36 43 46 48 51 58 63 68 70 73 72 78 79 75 75 67 64 55
30 38 39 35 28 22 14 14 11 7 7 7 6 8 23 31 33 37 44 45 41 38 26 15 14 14 13 13 15 17 22 30 37 44 48 51 54 57 65 70 74 74 79 78 77 77 70 69 66
31 39 35 25 21 20 16 14 13 9 8 7 7 25 32 35 40 41 44 46 45 38 29 22 15 14 15 15 16 18 20 24 33 39 46 49 53 56 60 65 71 77 80 80 79 78 74 72 69
24 36 28 24 21 19 18 16 14 11 12 8 8 20 19 31 39 42 46 43 38 40 33 20 18 15 15 16 16 18 19 22 30 36 43 52 55 57 61 66 74 77 81 82 82 85 80 75 69
24 21 22 23 21 20 20 17 17 15 11 8 8 12 17 14 25 34 40 47 46 46 43 37 24 21 18 16 16 18 19 19 23 29 36 45 55 60 62 64 75 82 83 84 84 87 88 84 73
18 18 18 18 20 19 18 18 18 17 15 12 12 13 13 14 15 20 29 37 43 45 42 36 24 24 25 30 23 24 29 23 29 29 29 31 47 61 72 73 79 82 87 86 88 87 89 90 82
20 18 17 16 17 17 19 18 18 17 16 14 13 13 13 14 15 18 20 23 32 42 41 39 34 23 22 26 31 33 40 50 51 50 35 38 44 63 70 76 80 81 88 90 93 86 85 87 83
20 25 22 20 17 18 17 23 21 17 16 15 15 14 14 14 14 15 14 16 18 20 40 47 43 40 39 37 43 48 42 66 71 62 57 47 56 64 72 80 84 81 84 87 94 95 92 94 89
14 19 29 21 20 18 19 26 19 17 16 16 16 16 15 15 14 14 14 13 15 15 18 36 48 47 45 46 51 57 52 68 73 73 64 54 54 68 76 80 81 83 86 88 89 97 96 97 88
16 27 26 25 20 20 21 24 18 17 17 18 17 17 16 15 15 15 14 15 13 14 15 22 40 46 48 48 53 56 61 72 80 81 80 78 65 74 75 72 83 89 88 90 90 94 97 94 92
27 26 26 30 22 20 23 22 20 16 16 18 17 18 17 17 16 15 15 15 15 13 15 18 28 39 44 51 54 55 57 82 83 76 78 84 82 74 88 90 90 92 88 88 87 94 100 100 92
26 30 25 25 21 23 23 21 18 18 15 17 17 16 16 16 16 16 16 16 15 14 14 15 27 44 50 59 70 70 48 52 87 85 77 72 88 89 99 100 100 100 93 82 80 93 100 100 98
28 28 31 24 21 25 24 32 20 24 19 15 15 16 14 16 17 16 15 15 16 18 20 26 43 53 55 58 62 60 47 45 64 83 90 83 81 91 81 100 100 99 92 100 94 84 95 100 99
28 27 27 30 41 44 40 42 39 28 20 17 14 14 14 16 16 17 17 18 20 21 22 24 33 41 43 38 44 61 69 74 75 99 98 95 90 92 93 81 100 100 98 97 98 100 91 92 96
31 21 20 23 29 67 43 56 40 33 25 21 18 16 16 16 16 17 19 21 21 24 24 27 32 35 42 55 60 43 46 47 58 74 96 98 92 90 90 95 93 100 95 92 99 99 99 100 99
27 22 19 20 40 70 58 68 46 30 28 24 22 19 17 12 18 16 20 25 29 33 36 38 38 38 39 43 52 59 47 50 65 65 89 99 92 89 93 98 99 99 92 95 100 98 98 99 100
20 22 23 42 64 94 55 55 48 33 27 24 21 19 17 15 16 24 29 34 41 44 46 49 49 46 48 52 59 60 67 59 63 74 77 87 84 87 92 98 98 97 99 90 96 95 100 90 100
21 22 65 91 90 79 41 48 42 28 22 21 20 19 19 19 24 32 36 42 48 50 52 51 49 46 48 52 57 69 73 67 75 70 76 82 86 87 90 95 97 98 99 100 98 93 95 100 98
25 45 79 91 78 58 32 52 40 26 22 20 18 29 29 28 39 43 45 46 47 45 44 43 45 43 48 52 46 55 71 84 78 88 81 86 86 84 89 91 96 99 98 98 99 98 98 91 98
36 42 39 61 53 69 43 30 24 23 25 26 30 31 33 47 48 51 51 51 49 47 45 37 30 32 39 46 45 42 49 72 88 79 78 83 93 83 82 90 96 98 99 98 97 97 99 98 100
29 29 64 77 88 86 78 43 42 38 43 52 74 59 58 62 62 64 63 59 58 56 53 44 46 50 51 55 51 52 54 61 92 87 80 75 92 100 90 89 97 98 99 100 99 98 99 98 98
40 38 48 73 53 66 95 87 45 49 41 68 80 86 80 69 70 68 68 66 64 63 60 63 66 59 58 61 56 66 71 76 72 92 86 75 97 95 99 89 98 99 98 98 97 99 98 99 100
43 49 38 57 60 46 69 89 61 71 67 71 75 77 78 73 72 69 71 70 66 66 68 69 70 71 67 66 64 82 98 80 74 92 85 78 98 100 98 87 87 99 99 98 98 98 100 100 99

GFSSGP_850_rhum_120.txt.gz
RH
11 6 13 31 34 37 32 26 16 13 12 8 10 14 21 25 31 42 38 40 41 22 14 13 14 16 18 22 33 42 52 57 56 58 58 56 56 44 39 41 41 43 46 48 54 59 63 64 66
9 13 28 31 45 39 31 21 17 13 10 9 10 13 22 39 40 35 44 44 29 13 13 14 14 15 17 22 31 42 51 56 54 56 60 58 58 52 43 44 45 49 47 45 45 51 55 60 65
8 24 30 43 48 40 28 17 12 11 8 10 9 9 18 36 40 36 42 32 12 14 13 12 12 14 16 24 35 45 50 48 47 50 61 61 60 58 47 48 48 54 52 50 47 54 59 65 66
8 24 38 48 43 30 22 16 14 13 9 8 9 10 24 23 27 32 33 15 14 14 12 10 12 13 17 25 38 42 40 40 44 52 61 63 60 62 55 50 52 56 53 58 50 51 58 66 70
21 46 59 46 40 27 19 15 14 13 10 8 9 10 26 32 25 17 13 12 14 14 11 9 10 13 16 28 36 37 39 44 49 54 60 64 62 64 62 56 54 56 58 61 58 60 62 62 72
42 44 49 53 36 22 18 13 12 12 10 8 10 17 25 32 26 17 12 13 15 14 12 10 10 12 16 27 37 40 41 44 49 54 59 62 64 64 64 61 56 58 62 64 62 61 60 64 68
52 56 53 44 32 28 21 15 13 13 12 12 8 17 39 34 26 19 13 14 15 14 12 12 10 11 14 20 31 40 42 43 45 51 56 60 62 65 63 65 63 62 65 65 63 62 59 64 63
43 54 54 47 38 33 20 17 14 12 9 8 9 21 43 35 29 19 18 15 16 15 13 13 12 10 12 16 22 29 39 43 45 46 50 55 57 60 61 65 70 66 66 68 68 64 64 62 58
31 50 53 50 41 33 22 22 17 16 13 8 9 9 21 35 34 31 30 32 26 18 14 14 13 12 12 14 16 20 26 33 40 45 47 49 53 56 57 59 70 71 71 71 70 68 68 64 58
31 49 46 32 32 30 24 22 20 16 14 12 18 9 28 38 41 38 33 26 32 26 17 14 14 14 13 13 14 15 18 23 26 31 40 46 50 54 58 60 68 72 73 73 72 73 72 68 66
23 35 33 30 28 26 25 24 22 20 20 14 20 21 28 38 44 41 36 24 17 23 25 19 15 15 14 14 14 15 16 19 23 24 31 41 50 54 60 64 68 72 76 76 78 76 74 73 71
21 15 19 23 24 27 28 24 23 21 19 16 13 29 34 42 42 40 36 32 27 25 23 24 20 16 15 16 15 15 15 17 20 21 26 33 43 52 58 64 68 71 74 74 78 77 77 77 78
31 22 16 16 18 20 23 24 24 22 20 18 16 25 40 41 39 39 35 35 35 34 31 23 22 17 16 16 17 17 17 17 18 22 25 28 35 41 50 60 66 74 79 78 78 82 82 82 83
19 19 22 21 17 17 20 20 21 20 20 18 17 15 20 36 43 43 44 42 42 39 36 34 32 22 16 16 16 15 17 17 19 21 25 27 30 36 42 53 62 74 81 82 83 85 85 84 87
21 23 17 18 22 22 18 22 22 18 18 18 17 16 14 14 19 33 35 41 44 41 39 38 34 35 23 19 19 20 20 24 23 29 37 31 31 37 47 56 61 69 81 86 93 95 100 92 87
30 28 30 16 18 21 22 30 19 17 18 19 18 16 16 15 14 20 22 26 25 26 42 43 43 39 37 30 28 28 28 30 33 33 51 56 50 44 57 68 71 78 84 89 91 91 96 91 82
34 40 31 24 16 22 26 29 20 17 18 19 19 17 16 16 16 14 14 16 18 16 16 22 43 44 42 41 40 39 38 38 35 43 57 63 67 56 58 69 79 86 85 86 86 84 88 88 91
38 36 32 28 17 22 24 28 21 19 19 19 18 18 17 16 16 16 15 14 14 14 13 15 20 35 38 44 50 54 53 52 49 47 56 68 73 72 70 68 84 93 88 87 91 91 94 96 99
45 44 41 30 24 26 19 25 22 21 20 21 20 18 17 17 16 16 16 16 15 14 15 15 18 27 40 50 57 68 69 67 64 59 54 69 73 82 77 73 78 98 100 95 95 99 99 100 99
38 55 64 39 25 25 26 23 22 20 20 19 19 17 17 17 17 16 15 16 16 16 15 15 16 25 34 42 52 63 63 68 65 65 57 75 81 88 88 84 82 92 99 99 100 99 96 98 93
49 47 51 59 29 24 48 50 38 33 22 19 18 17 16 15 15 15 15 15 16 16 17 18 20 22 36 43 56 61 64 62 67 79 75 66 83 91 94 95 92 96 99 97 98 99 98 99 98
94 40 45 53 38 47 55 73 47 36 35 25 20 18 17 16 15 15 17 19 20 25 28 29 51 65 67 71 66 65 60 54 51 51 64 53 65 89 96 99 100 98 99 98 99 100 97 99 100
89 56 46 51 34 36 48 84 68 40 36 31 24 20 18 18 18 36 35 38 42 50 50 53 60 68 69 69 68 71 84 78 60 51 52 56 80 88 83 89 88 90 97 100 99 100 100 96 96
63 55 53 39 41 53 42 72 66 39 31 28 23 20 17 38 43 44 49 51 55 55 53 53 50 49 52 52 56 62 68 84 92 85 73 70 78 84 75 84 87 82 92 97 99 99 99 98 98
62 58 72 72 73 83 58 82 56 37 28 26 27 25 26 40 44 46 48 52 52 51 50 48 46 46 48 51 54 58 64 71 77 86 89 82 84 89 86 92 84 87 86 93 98 98 100 99 97
65 51 58 77 76 74 60 69 47 31 26 24 26 41 54 41 48 42 51 50 50 46 43 42 41 38 37 34 34 39 46 52 66 74 79 87 76 75 77 83 82 89 94 96 96 99 99 100 95
40 48 31 55 71 66 52 36 26 46 52 39 56 61 68 70 82 78 66 62 56 47 43 38 31 26 23 24 27 29 31 33 33 52 74 86 89 73 76 75 78 80 90 97 96 97 97 99 93
53 37 61 73 86 78 86 61 82 91 91 79 79 76 79 81 80 79 75 71 65 58 55 53 47 41 32 28 35 38 37 38 40 43 56 79 87 84 78 79 84 84 86 93 100 99 96 99 92
64 56 74 72 83 92 94 99 80 80 89 90 83 82 84 85 84 80 73 67 63 59 51 49 46 43 39 39 40 40 38 42 51 58 54 65 80 93 83 78 81 97 89 92 100 99 97 97 92
55 71 69 78 94 89 84 96 88 83 84 84 82 90 93 90 82 78 71 64 62 60 57 49 46 52 56 52 51 50 48 49 64 90 70 65 78 93 87 80 80 100 93 90 96 97 99 86 98

GFSSGP_850_rhum_126.txt.gz
RH
13 10 7 24 27 39 28 19 24 15 12 10 10 12 24 32 42 51 29 29 16 20 35 46 48 48 49 50 51 51 51 50 53 54 49 39 37 37 39 41 45 45 52 58 62 66 67 64 62
10 8 19 32 29 19 12 26 21 17 12 11 10 18 27 33 33 33 32 25 24 18 28 41 44 44 45 49 53 55 55 53 54 55 53 42 38 38 40 42 43 44 51 56 61 60 58 57 58
10 12 21 48 46 17 13 16 21 16 13 13 12 10 17 30 36 33 24 24 30 21 25 35 32 37 42 43 52 57 58 57 55 56 56 46 40 40 42 44 45 43 46 46 50 53 54 55 58
12 20 34 45 49 39 20 16 16 20 13 12 12 13 10 18 30 33 28 30 30 25 25 24 24 32 36 36 45 56 58 59 57 56 58 54 44 43 44 45 49 47 46 42 44 48 50 54 59
12 31 38 62 52 37 32 24 20 22 18 14 13 15 12 11 20 31 34 31 25 21 18 17 20 24 30 32 40 50 57 58 57 56 58 60 52 46 46 48 51 51 49 40 43 49 50 52 56
24 50 68 59 46 32 29 22 20 19 17 14 14 14 14 16 21 34 41 37 25 14 14 16 21 21 24 30 37 46 55 56 55 54 58 60 59 52 49 51 53 52 54 47 53 56 52 54 54
43 67 67 58 45 35 29 20 21 21 20 17 14 19 16 19 39 34 40 38 18 15 16 16 16 17 19 30 39 44 51 49 47 51 59 61 62 60 55 52 54 56 56 57 57 57 54 58 56
45 63 67 58 47 44 27 23 20 21 22 18 17 22 21 22 31 42 43 33 16 16 15 13 16 21 22 29 41 44 41 41 44 53 60 62 63 64 62 55 54 58 61 62 61 62 61 64 65
38 60 80 51 46 38 24 28 25 25 25 24 21 17 19 18 21 47 46 21 18 15 13 13 16 23 32 33 38 41 43 46 50 56 60 64 64 66 65 60 57 58 61 65 67 68 64 64 66
32 55 36 41 36 38 33 34 33 31 29 28 26 24 22 19 39 43 35 16 16 14 12 11 15 21 30 37 35 41 46 50 53 55 58 60 62 63 63 60 61 61 62 66 70 72 70 66 63
24 35 26 26 24 30 38 32 29 33 33 29 28 24 21 22 34 50 30 15 12 14 12 11 13 17 24 33 38 40 43 45 48 50 49 53 56 60 62 61 62 62 66 67 68 76 75 72 68
40 26 26 28 26 23 24 21 21 20 21 25 26 26 25 23 28 51 30 20 17 16 13 12 12 15 18 25 28 32 35 38 39 41 45 45 47 50 54 55 56 55 59 65 67 73 77 76 76
31 28 28 26 25 22 20 21 22 21 19 18 18 19 22 23 22 32 43 39 33 22 15 13 13 13 14 18 19 19 20 26 28 31 34 37 39 38 44 49 52 52 56 61 68 72 77 80 80
29 33 32 29 27 25 22 19 17 15 16 18 18 17 18 19 21 21 41 40 36 24 18 16 14 14 14 13 14 15 15 14 17 20 21 24 28 31 36 42 47 50 53 57 68 71 76 81 85
33 41 29 22 21 21 19 20 22 16 14 16 17 18 18 19 20 20 20 35 31 25 20 18 16 16 15 15 14 14 14 14 14 15 18 22 23 26 32 39 46 49 54 57 71 78 85 89 93
42 41 51 19 18 16 16 17 13 12 17 19 18 21 20 18 17 18 19 23 46 41 29 21 20 17 16 16 16 15 15 16 16 17 19 23 26 28 34 41 46 53 60 61 70 81 86 92 98
49 45 44 32 20 21 22 24 16 19 21 22 20 18 19 21 19 18 18 21 44 49 46 36 33 27 22 19 19 18 16 17 19 21 24 25 29 33 38 42 45 55 66 64 73 85 92 96 99
39 47 43 42 31 29 35 38 31 28 23 22 21 22 21 20 21 19 17 18 34 50 48 44 40 39 35 36 31 27 24 21 22 24 25 27 30 32 40 42 47 54 67 71 80 93 100 100 100
44 48 53 44 36 42 44 44 38 33 31 29 26 21 20 20 18 21 18 17 18 45 48 46 44 44 46 50 47 42 34 29 24 25 26 33 40 48 54 57 62 60 67 71 82 100 97 99 98
56 62 62 49 43 46 48 49 43 38 35 33 30 25 19 20 19 22 20 17 17 17 25 38 44 45 47 48 48 54 49 49 39 34 35 48 56 60 65 66 71 70 71 79 92 99 96 98 94
61 66 59 60 49 48 60 70 61 44 36 33 31 25 20 20 21 21 21 19 18 17 19 31 34 31 42 49 54 66 70 69 59 54 53 56 63 67 67 66 73 82 84 84 84 90 93 86 91
69 47 49 56 75 94 64 84 52 42 37 31 26 22 21 26 22 19 22 22 21 18 17 17 18 20 26 52 55 62 60 66 61 58 66 66 66 64 61 63 64 75 89 92 89 90 83 89 92
68 53 69 70 93 91 62 90 48 38 43 37 30 30 26 27 20 26 27 26 25 23 22 22 21 20 35 58 70 72 75 67 70 66 67 67 72 66 56 55 68 79 94 86 87 89 86 78 83
48 72 76 84 89 97 53 68 54 46 36 45 64 82 69 52 54 71 66 59 61 49 50 46 38 33 44 55 95 100 100 84 63 62 61 65 58 81 64 60 74 85 82 82 76 78 80 79 87
70 72 86 83 95 65 47 86 56 41 41 37 64 94 96 98 99 97 92 90 92 93 97 100 99 98 98 97 99 100 97 93 75 66 52 44 54 71 59 58 63 66 78 85 73 78 81 84 79
71 93 79 91 63 64 54 86 72 83 87 89 95 97 99 100 100 99 90 80 74 69 63 60 62 63 67 67 72 75 78 72 68 63 60 47 72 69 58 68 76 81 84 81 80 79 80 85 88
82 88 61 69 65 87 74 65 74 83 90 92 92 95 98 100 100 100 94 86 79 74 62 55 52 46 41 39 39 37 37 41 42 44 49 54 54 50 54 62 75 79 83 82 86 86 86 90 80
78 69 83 71 95 94 84 93 95 96 95 93 97 96 98 100 100 100 99 90 86 78 70 61 55 45 40 36 32 31 31 29 27 25 26 26 25 26 29 42 61 72 82 83 89 88 85 71 69
86 90 92 97 96 96 95 97 100 100 97 95 95 100 100 100 100 98 98 94 84 76 66 60 53 50 46 43 39 34 31 29 27 29 32 30 29 29 32 36 39 62 79 89 92 91 86 71 71
70 95 96 99 92 90 95 98 100 100 100 100 97 99 100 100 100 99 95 98 86 65 61 66 56 46 44 39 40 35 38 40 39 39 40 39 37 37 40 47 53 43 71 91 97 90 80 76 74

GFSSGP_850_rhum_132.txt.gz
RH
19 14 7 22 11 7 5 4 4 5 8 10 10 11 10 11 14 16 34 27 30 60 24 37 42 46 47 49 48 50 47 47 48 53 58 62 60 54 41 40 43 45 50 55 61 66 65 66 67
14 12 22 14 8 6 5 4 5 5 6 9 10 10 15 16 19 24 32 38 36 62 27 37 43 46 47 50 50 50 49 49 49 51 54 55 52 44 40 41 44 46 48 52 57 63 60 58 60
12 14 15 12 9 8 6 4 7 8 9 9 8 8 10 12 14 24 59 41 50 63 37 37 42 46 46 49 52 52 51 51 51 49 48 47 45 39 41 40 43 45 49 52 53 53 51 51 53
25 19 16 14 12 8 7 7 8 8 8 11 9 9 9 24 38 48 56 50 70 56 54 36 42 44 47 50 53 54 53 53 53 49 45 44 40 39 41 42 42 44 45 46 45 42 46 48 53
24 17 16 18 15 11 10 10 12 10 10 11 12 10 11 31 34 43 60 77 77 66 54 38 44 45 49 51 54 56 56 54 55 51 44 41 40 41 43 44 42 44 43 42 40 40 42 48 51
18 21 20 19 16 14 12 13 14 14 14 15 15 14 12 28 36 48 26 66 86 86 65 45 48 51 50 51 55 57 58 56 56 54 46 41 41 42 46 46 46 45 42 39 38 41 44 48 52
19 19 21 19 20 19 16 17 18 17 18 16 17 16 15 20 34 49 38 42 46 72 68 52 54 59 55 52 56 57 61 60 57 57 51 44 44 44 48 50 48 47 43 38 42 47 47 48 53
23 20 21 21 21 19 16 19 19 20 19 20 19 17 17 19 26 45 59 72 66 49 53 54 58 60 60 59 59 59 63 63 60 58 56 49 47 47 49 53 52 51 47 44 50 50 49 52 54
25 16 15 14 18 16 16 20 18 19 23 21 23 23 22 22 34 36 40 66 89 77 72 82 85 64 59 62 61 63 62 65 63 61 60 56 54 56 56 57 55 55 54 52 53 53 54 56 60
14 10 8 10 14 17 19 17 14 13 12 12 13 17 24 25 23 22 28 34 58 93 92 93 94 72 90 92 70 64 68 69 68 64 63 63 85 88 85 80 62 60 59 59 58 58 60 62 70
10 10 7 13 18 19 15 12 10 10 10 9 10 16 18 15 16 17 19 24 38 69 87 91 96 93 92 91 89 92 91 84 77 68 64 89 99 98 98 96 74 72 68 67 65 64 65 87 92
16 12 14 11 17 16 13 11 10 9 8 7 9 11 12 11 10 10 12 17 28 50 78 89 92 87 93 85 88 69 93 94 95 95 80 94 98 100 100 100 100 100 87 95 90 94 92 97 96
15 11 14 15 15 14 12 11 9 9 9 10 10 10 11 11 12 12 14 14 18 34 66 83 92 88 88 93 90 89 92 93 94 95 83 96 97 100 99 100 100 100 98 99 98 92 96 99 94
20 19 17 15 14 14 14 11 11 9 8 10 11 12 12 14 14 14 14 14 19 29 48 75 88 86 83 90 93 89 61 90 93 94 54 58 93 98 100 100 100 99 98 99 95 94 94 94 94
23 21 13 12 13 10 11 10 8 8 10 11 10 10 11 12 12 13 15 18 17 24 43 54 88 66 44 34 82 90 91 51 45 49 48 54 64 94 94 87 97 99 98 100 99 100 100 94 94
21 17 14 12 11 11 13 11 7 10 12 11 11 13 17 18 16 14 13 15 16 18 22 48 70 92 38 30 67 91 91 46 44 46 47 49 55 70 59 71 66 95 93 93 98 100 100 100 97
20 12 12 13 14 14 15 17 12 14 15 17 18 18 18 18 18 18 16 14 14 13 20 31 62 87 68 31 33 90 93 60 45 46 43 45 44 52 49 51 50 83 66 66 80 98 99 100 100
16 17 14 15 13 16 20 22 18 18 17 16 17 19 20 20 19 19 19 18 16 12 15 23 49 84 74 38 30 60 92 90 91 69 44 43 42 38 44 48 45 51 91 73 64 71 96 96 98
26 25 21 17 18 30 30 26 23 19 17 16 18 18 19 19 18 19 20 21 23 21 18 19 32 77 96 82 44 41 53 43 82 84 46 45 31 42 43 40 38 45 87 94 57 66 70 90 97
29 29 26 21 24 30 30 32 23 16 13 15 19 23 21 19 20 21 22 22 25 24 23 19 28 66 88 87 57 29 24 35 41 46 34 29 28 34 38 38 77 64 92 98 63 67 79 91 94
30 31 30 32 31 30 34 24 12 15 14 34 48 52 50 45 36 33 25 24 23 27 27 24 22 52 81 85 91 56 50 78 86 83 76 80 50 30 36 44 84 97 79 88 65 69 83 95 96
38 28 34 38 44 46 35 52 24 19 40 56 53 71 83 84 71 59 51 34 28 24 26 25 24 45 74 87 86 74 46 64 64 57 80 88 90 80 52 52 78 68 56 64 69 73 77 91 97
37 36 42 44 47 57 35 43 19 46 81 70 61 79 98 99 95 73 41 47 35 23 25 23 25 38 64 87 87 85 55 49 67 79 86 93 69 85 71 70 86 67 77 84 97 99 98 88 89
36 44 40 43 52 66 32 32 34 75 96 85 87 81 97 100 100 99 98 80 66 65 54 46 42 39 61 87 95 95 82 81 83 99 95 96 84 64 54 49 55 82 89 74 70 64 82 86 86
46 47 40 44 48 34 25 32 78 58 71 94 95 97 99 99 99 100 98 98 100 99 99 100 92 85 91 98 98 100 100 99 100 99 97 84 80 84 78 64 65 70 67 66 53 53 58 79 75
52 54 54 69 44 46 32 35 74 47 51 75 93 97 99 99 99 99 100 100 100 100 100 99 100 100 100 100 100 100 100 72 86 99 74 71 73 99 97 94 82 86 78 60 54 55 58 58 68
86 64 56 76 50 62 32 44 55 46 51 71 96 91 99 99 98 99 98 99 99 100 100 100 100 100 100 100 100 100 98 100 99 96 92 99 99 93 99 91 86 71 59 67 57 54 44 46 54
50 44 58 71 80 65 35 76 79 80 78 75 96 97 98 99 98 97 97 99 100 99 100 100 98 89 90 92 93 90 93 94 95 99 100 99 93 79 67 60 56 54 59 61 61 60 60 77 81
41 51 55 56 59 65 62 89 100 99 98 95 95 98 98 98 98 97 98 98 99 100 100 100 95 71 66 84 69 62 63 63 62 61 63 71 76 74 70 68 64 58 66 68 78 73 69 84 98
44 54 61 79 67 60 71 96 95 100 99 98 97 98 98 97 98 97 97 98 98 100 100 98 98 80 65 65 55 54 53 48 42 39 38 36 36 35 31 33 34 36 38 40 43 55 63 98 99

GFSSGP_850_rhum_138.txt.gz
RH
16 20 17 15 15 12 9 6 2 3 4 6 7 8 10 9 12 28 45 48 39 59 41 35 31 39 40 39 38 36 39 49 58 62 60 53 52 46 38 43 51 58 60 62 62 64 64 66 66
18 20 16 14 16 11 8 4 5 5 5 6 5 8 8 14 20 24 32 46 50 57 48 46 37 45 42 40 40 38 38 44 54 62 57 54 54 47 39 45 51 58 60 62 62 65 67 66 66
18 23 17 15 14 14 9 5 5 4 6 5 6 7 7 15 22 31 42 59 54 58 58 54 43 50 44 41 42 40 39 42 49 56 52 53 57 47 40 45 49 55 59 62 64 63 60 59 58
24 18 16 18 15 10 8 6 5 5 6 6 6 8 9 19 26 33 44 63 58 61 70 60 52 53 46 44 44 43 42 44 44 47 50 52 57 48 41 44 46 48 52 57 60 54 50 50 50
21 19 20 18 14 11 8 7 6 8 9 8 10 10 10 22 25 31 46 67 64 64 76 77 63 54 51 47 46 45 45 46 45 45 52 53 54 47 40 45 47 46 47 50 52 47 43 47 48
18 17 20 19 14 10 8 8 10 12 12 12 12 12 12 18 20 25 39 65 72 72 76 79 75 58 56 53 51 49 48 48 49 48 50 54 52 45 40 43 47 50 49 49 46 45 43 47 48
19 17 19 16 14 12 10 10 10 12 14 14 15 15 13 17 19 20 28 47 58 80 86 86 83 63 59 58 55 53 52 51 51 51 50 50 53 45 43 44 46 49 51 48 43 44 45 48 49
13 14 17 15 14 12 8 10 12 13 13 12 14 16 16 16 14 16 22 29 59 64 85 85 72 68 63 63 60 58 56 54 54 54 53 51 52 49 46 47 47 48 50 48 44 46 48 48 47
10 11 12 11 10 7 8 10 10 10 8 7 9 9 13 14 13 19 18 18 47 62 82 88 79 67 64 66 65 63 60 58 57 59 58 56 53 48 51 50 50 51 51 48 46 50 51 50 50
7 10 10 6 5 6 7 9 8 6 6 6 5 6 7 8 11 15 13 11 14 21 54 82 86 86 75 74 68 67 65 62 61 63 63 61 55 48 48 54 52 52 52 49 49 54 53 53 54
6 8 7 6 5 6 6 7 7 6 6 5 5 6 6 6 7 7 8 9 9 10 15 58 79 88 90 85 94 73 68 66 63 63 63 62 57 51 58 56 59 54 53 52 53 57 55 57 68
7 8 8 6 6 7 7 7 7 6 6 6 6 6 7 7 8 9 9 9 10 10 11 19 60 68 77 86 90 88 72 69 66 66 65 64 60 69 71 83 65 60 57 56 56 58 58 59 80
8 7 7 7 8 7 7 7 8 7 7 7 7 7 8 8 8 9 10 10 11 12 12 13 28 64 74 82 83 87 83 74 75 68 65 65 64 74 83 86 85 72 60 62 60 64 66 69 76
8 9 11 10 8 8 8 7 6 6 6 7 8 8 7 7 8 8 9 11 12 12 12 15 16 51 68 79 72 78 80 83 82 78 73 77 78 75 80 87 88 90 84 80 80 80 85 72 75
15 16 10 9 8 7 7 8 7 6 7 8 9 9 10 10 11 11 12 13 13 14 14 13 15 19 72 71 66 76 79 80 80 78 86 72 81 84 80 81 88 88 93 88 84 80 85 80 68
13 12 16 9 7 7 8 12 7 8 8 9 10 10 12 14 25 33 33 38 40 22 14 14 13 14 42 74 71 74 76 78 84 81 87 86 73 79 89 86 83 86 86 80 84 81 75 72 72
14 16 12 10 6 8 10 11 9 11 11 10 15 30 33 37 38 33 33 38 34 30 36 15 16 15 14 39 71 63 85 83 76 83 83 89 85 75 86 86 81 83 84 81 86 84 81 79 79
18 14 12 10 7 7 10 12 11 11 12 28 32 34 36 38 41 47 37 30 40 40 48 49 22 19 18 16 61 74 63 83 83 81 80 85 87 76 79 90 82 82 88 86 85 85 86 84 74
16 13 12 10 8 13 15 14 11 22 30 34 36 40 42 45 48 54 61 63 59 55 62 66 57 38 20 19 25 73 83 72 84 83 85 83 89 81 79 88 88 85 81 89 86 83 84 91 82
16 17 16 12 11 13 14 14 19 31 34 36 43 48 52 56 61 62 64 70 78 71 79 81 65 53 46 21 24 56 75 82 73 91 82 74 92 79 77 85 90 84 75 92 93 74 84 96 84
16 18 17 17 15 14 15 16 34 31 29 38 44 53 61 65 68 70 70 74 86 93 88 92 75 68 54 29 23 23 68 77 80 80 94 82 78 74 69 88 94 84 72 79 97 85 78 82 90
22 14 19 20 22 28 18 30 18 30 34 39 46 55 66 72 74 77 79 82 86 98 92 86 73 72 60 33 26 26 26 88 77 73 95 94 82 67 78 75 98 88 86 74 91 91 88 85 84
23 19 23 24 27 32 28 26 30 34 46 49 50 58 70 76 81 87 88 92 90 97 92 98 80 61 61 53 30 26 28 33 85 70 86 86 91 90 63 75 88 99 90 74 72 78 82 90 75
21 27 28 28 32 48 29 25 53 49 54 56 57 66 76 80 87 93 98 98 98 90 82 96 98 70 63 58 46 36 31 28 53 83 78 84 93 96 85 84 76 98 95 91 76 64 77 67 60
28 32 38 34 50 51 24 29 53 46 49 58 64 73 83 86 94 93 92 96 98 98 82 88 100 99 96 89 73 39 34 43 30 87 73 84 94 100 79 61 53 60 96 84 89 76 68 38 51
34 33 40 53 39 38 23 45 66 44 48 60 68 77 86 90 97 96 97 97 98 100 100 93 93 97 98 98 99 73 63 47 49 82 71 85 84 91 80 49 53 46 85 88 88 88 66 61 64
39 45 36 42 37 48 32 62 51 49 54 62 76 84 96 96 96 97 98 99 99 100 99 100 93 96 100 98 100 97 88 78 85 90 87 85 81 92 98 79 58 84 92 84 58 72 69 68 66
30 25 38 48 60 46 36 71 75 76 72 72 89 95 95 95 94 98 100 97 99 99 100 99 94 91 99 99 100 100 100 92 82 96 89 100 86 96 100 100 100 99 97 88 92 84 69 81 77
38 40 43 36 41 48 55 79 83 75 75 78 76 98 98 94 96 99 100 99 100 94 93 98 92 95 97 100 100 100 99 99 90 96 95 95 100 99 96 100 100 100 96 83 100 97 96 98 93
24 33 33 55 46 58 71 95 67 65 69 70 78 87 94 97 97 100 100 94 95 94 93 96 93 96 97 99 100 100 100 88 76 78 100 100 99 100 100 100 99 99 99 100 100 100 100 99 100

GFSSGP_850_rhum_141.txt.gz
RH
16 17 17 22 23 26 20 12 7 8 10 6 8 9 11 23 33 69 52 48 48 48 47 32 34 33 37 33 34 32 33 40 50 56 56 51 41 36 34 37 39 48 51 56 59 63 63 67 64
18 19 19 16 28 28 21 9 8 7 5 5 6 8 10 26 27 39 40 37 55 46 56 43 39 38 40 36 35 34 33 40 45 53 57 52 44 38 35 39 42 45 49 57 60 62 64 64 66
19 23 22 28 29 28 20 7 7 7 6 5 7 7 10 23 31 38 39 23 59 55 63 53 48 45 44 40 38 36 36 38 44 49 51 52 47 40 36 41 48 49 50 53 60 62 61 57 58
22 22 18 28 28 22 16 13 5 8 6 7 7 9 21 25 30 37 32 41 60 67 71 70 60 54 49 44 42 40 39 41 43 47 44 46 52 43 36 40 48 54 54 56 59 56 54 54 50
26 21 33 31 27 20 15 11 7 15 12 12 10 11 22 23 23 28 25 33 69 73 77 73 68 62 53 47 45 44 42 43 45 45 43 45 48 48 37 40 46 50 52 51 52 47 46 49 48
25 20 35 35 26 17 14 11 12 14 15 15 16 14 21 19 19 24 31 37 39 65 74 75 73 66 55 50 49 48 46 45 46 45 44 46 47 49 40 44 47 47 48 47 42 41 42 48 46
26 32 32 28 22 18 13 11 16 17 15 12 14 18 16 13 13 19 32 37 43 44 55 74 78 77 59 53 52 51 50 49 48 48 48 46 47 48 42 46 46 47 47 45 42 37 40 45 45
11 21 22 24 23 20 9 9 8 8 11 7 9 17 11 11 12 18 18 30 54 53 62 50 51 63 67 57 55 55 54 53 51 52 52 51 50 50 42 44 48 50 49 45 40 40 43 44 44
7 16 20 17 13 9 7 11 8 7 6 5 6 6 6 6 8 16 16 12 13 46 44 68 57 53 56 59 57 57 57 56 56 57 57 56 54 49 44 44 47 50 51 48 40 43 46 47 46
9 17 14 11 8 9 8 7 7 7 6 6 6 5 6 6 6 6 7 8 9 9 10 42 66 62 57 57 59 59 60 59 58 60 60 61 57 51 44 45 47 50 52 51 44 46 48 50 51
8 12 9 8 8 7 8 8 7 8 9 7 6 6 6 6 7 7 7 8 9 9 11 13 74 79 70 63 58 63 63 62 61 61 61 60 60 56 49 48 50 52 54 53 47 48 51 51 54
9 8 8 9 8 8 8 7 8 7 8 7 7 7 7 8 8 8 9 10 10 10 11 12 13 46 92 81 69 67 70 67 64 63 63 63 62 58 53 50 49 52 50 52 50 49 53 54 58
10 9 9 10 10 9 7 8 9 8 8 7 7 7 7 7 12 19 21 21 21 21 17 14 13 13 35 94 84 64 72 79 69 64 63 64 64 60 56 50 52 53 53 52 53 53 56 57 65
12 14 13 13 12 10 10 9 8 6 6 7 8 8 12 33 30 22 23 26 22 25 20 16 15 15 14 17 80 77 79 80 79 71 64 63 62 62 58 58 55 66 61 56 55 56 59 61 67
15 20 19 14 11 12 9 9 10 8 8 9 21 33 34 37 32 32 31 28 29 29 28 24 17 21 25 14 55 81 74 67 86 80 68 65 64 62 60 61 67 71 78 72 63 66 71 78 69
17 16 19 13 10 9 9 14 11 11 11 33 39 40 41 44 44 37 28 22 20 22 24 25 24 20 25 20 24 40 84 76 65 89 79 74 68 66 63 66 74 77 82 84 80 78 78 76 70
25 25 21 15 9 10 11 13 13 12 30 40 45 49 50 43 32 34 38 30 23 25 23 22 27 22 18 22 21 26 26 80 73 66 88 81 77 70 74 69 78 81 83 87 86 79 80 79 76
25 21 17 14 10 11 16 16 18 36 42 48 52 56 55 54 50 43 40 43 42 36 34 33 36 44 25 22 21 20 25 28 76 75 74 87 85 76 80 77 75 82 87 86 85 78 84 77 69
18 18 17 16 12 15 16 17 40 40 46 51 56 62 66 66 66 55 45 41 38 36 39 41 43 44 51 32 38 28 22 23 46 70 80 79 85 86 77 80 74 84 90 81 80 81 83 80 74
19 22 24 19 15 17 18 22 43 41 46 52 58 66 70 74 75 73 67 60 57 56 52 51 55 60 57 61 55 57 47 32 25 56 71 82 82 83 85 81 76 82 89 85 76 80 83 79 87
18 23 24 22 20 19 20 35 43 42 46 52 60 71 75 80 82 77 70 63 62 68 74 65 64 71 72 64 64 55 46 40 25 42 75 73 84 83 82 81 79 77 84 86 79 80 82 81 89
25 19 22 24 29 39 26 49 44 47 54 55 64 76 82 84 87 81 74 72 78 76 71 71 69 79 85 79 65 68 66 50 36 26 24 64 77 85 89 82 79 78 79 86 81 78 73 76 77
29 25 28 30 36 38 37 51 55 56 67 67 69 81 84 86 90 81 83 91 79 74 76 78 74 79 91 99 92 72 69 55 43 38 34 30 61 82 86 86 80 80 83 88 83 81 80 76 72
22 29 34 36 43 78 44 46 74 74 76 73 73 85 88 90 94 84 90 87 81 75 80 87 88 89 99 100 100 94 92 65 53 42 48 29 33 80 86 90 82 75 83 85 75 75 69 70 75
28 40 70 67 78 72 31 57 73 68 69 75 79 89 94 94 91 92 91 90 85 78 84 87 87 89 98 100 100 99 96 84 67 57 47 47 59 46 87 99 86 83 87 85 78 72 70 71 74
36 40 63 65 78 70 40 78 77 59 66 76 79 89 95 98 92 84 92 87 85 87 92 91 89 96 91 98 100 100 100 98 90 77 45 42 40 62 95 96 90 90 96 90 93 79 65 65 69
42 55 40 50 50 79 73 72 63 59 63 67 78 88 93 99 100 86 93 90 87 91 95 97 99 98 92 97 99 100 100 98 98 87 62 48 53 52 61 97 98 85 93 100 100 96 78 67 64
32 30 50 63 87 72 76 85 91 81 74 68 82 88 92 98 100 91 93 92 90 96 97 97 98 98 98 98 94 100 99 98 100 97 85 76 73 55 73 98 74 95 94 99 100 100 99 90 83
37 48 48 51 62 79 91 97 88 79 74 76 73 78 85 97 100 99 96 93 92 96 96 99 97 97 98 97 96 98 100 98 100 90 98 100 82 60 77 78 100 88 85 97 100 99 100 98 89
33 51 46 79 65 75 85 97 74 80 75 76 84 85 90 92 94 99 96 95 88 94 92 98 97 97 99 98 98 96 95 98 100 88 99 100 92 83 82 65 86 100 100 100 100 100 100 99 80